Mountain Home AFB, ID

1:50 AM MST on January 17, 2017 (GMT -0700)
Mountain Home Air Force Base

Weather History for KMUO - July, 2013

Change the Weather History Date:

Saturday, July 27, 2013

  Actual Average Record
Temperature  
Mean Temperature 83 °F 78 °F  
Max Temperature 96 °F 95 °F 108 °F (1975)
Min Temperature 70 °F 59 °F 38 °F (1919)
Degree Days  
Heating Degree Days 0 0  
Month to date heating degree days 0 6  
Cooling Degree Days 18 13  
Month to date cooling degree days 417 289  
Growing Degree Days 35 (Base 50)    
Moisture  
Dew Point 35 °F    
Average Humidity 16    
Maximum Humidity 28    
Minimum Humidity 11    
Precipitation  
Precipitation 0.00 in 0.01 in 0.17 in (2005)
Month to date precipitation T 0.19  
Sea Level Pressure  
Sea Level Pressure 29.85 in    
Wind  
Wind Speed 12 mph (NW)    
Max Wind Speed 17 mph    
Max Gust Speed 24 mph    
Visibility 10 miles    
Events      
T = Trace of Precipitation, MM = Missing Value Source: NWS Daily Summary

Daily Weather History Graph

Daily Weather History Graph

Search for Another Location

Airport or City:

Trip Planner

Search our weather history database for the weather conditions in past years. The results will help you decide how hot, cold, wet, or windy it might be!

Date:

Astronomy

Jul. 27, 2013 Rise Set
Actual Time 6:29 AM MDT 9:09 PM MDT
Civil Twilight 5:56 AM MDT 9:42 PM MDT
Nautical Twilight 5:15 AM MDT 10:23 PM MDT
Astronomical Twilight 4:28 AM MDT 11:10 PM MDT
Moon 11:48 PM MDT (7/27) 12:25 PM MDT (7/27)
Length of Visible Light 15h 46m
Length of Day
14h 40m
Waning Gibbous, 70% of the Moon is Illuminated
Jul 27
Waning Gibbous
Jul 29
Last Quarter
Aug 6
New
Aug 14
First Quarter
Aug 20
Full

Hourly Weather History & Observations

Time (MDT) Temp. Dew Point Humidity Pressure Visibility Wind Dir Wind Speed Gust Speed Precip Events Conditions
12:58 AM 84.4 °F 39.6 °F 20% 29.89 in 10.0 mi WNW 16.1 mph - N/A   Mostly Cloudy
1:58 AM 81.0 °F 41.5 °F 25% 29.90 in 10.0 mi West 5.8 mph - N/A   Mostly Cloudy
2:58 AM 79.2 °F 41.0 °F 26% 29.93 in 10.0 mi South 8.1 mph - N/A   Overcast
3:58 AM 77.4 °F 41.0 °F 27% 29.91 in 10.0 mi WNW 8.1 mph - N/A   Scattered Clouds
4:58 AM 81.1 °F 40.6 °F 24% 29.88 in 10.0 mi NNE 5.8 mph - N/A   Overcast
5:58 AM 76.3 °F 40.3 °F 27% 29.91 in 10.0 mi WSW 9.2 mph - N/A   Mostly Cloudy
6:58 AM 75.9 °F 40.8 °F 28% 29.93 in 10.0 mi West 8.1 mph - N/A   Overcast
7:58 AM 79.2 °F 40.1 °F 25% 29.94 in 10.0 mi WNW 6.9 mph - N/A   Overcast
8:58 AM 81.0 °F 32.7 °F 17% 29.94 in 10.0 mi NW 12.7 mph - N/A   Mostly Cloudy
9:58 AM 84.0 °F 26.8 °F 12% 29.93 in 10.0 mi NW 13.8 mph - N/A   Overcast
10:58 AM 86.9 °F 27.9 °F 12% 29.92 in 10.0 mi NW 17.3 mph - N/A   Scattered Clouds
11:58 AM 87.4 °F 32.2 °F 14% 29.90 in 10.0 mi NW 16.1 mph - N/A   Clear
12:58 PM 90.1 °F 29.5 °F 11% 29.89 in 10.0 mi WNW 12.7 mph - N/A   Clear
1:58 PM 92.5 °F 30.4 °F 11% 29.86 in 10.0 mi WNW 12.7 mph - N/A   Clear
2:51 PM 93.2 °F 32.0 °F 11% 29.93 in 10.0 mi North 13.8 mph 20.7 mph N/A   Clear
2:58 PM 94.1 °F 32.5 °F 11% 29.83 in 10.0 mi NW 16.1 mph 19.6 mph N/A   Clear
3:39 PM 95.0 °F 35.6 °F 12% 29.91 in 10.0 mi NW 12.7 mph 23.0 mph N/A   Clear
3:58 PM 94.3 °F 36.0 °F 13% 29.80 in 10.0 mi WNW 13.8 mph 21.9 mph N/A   Clear
4:00 PM 95.0 °F 35.6 °F 12% 29.90 in 10.0 mi West 13.8 mph 21.9 mph N/A   Clear
4:58 PM 95.7 °F 34.9 °F 12% 29.76 in 10.0 mi NW 12.7 mph 20.7 mph N/A   Clear
5:16 PM 95.0 °F 33.8 °F 12% 29.86 in 10.0 mi NNW 15.0 mph 23.0 mph N/A   Clear
5:58 PM 94.6 °F 33.8 °F 12% 29.75 in 10.0 mi NNW 12.7 mph 18.4 mph N/A   Clear
6:40 PM 95.0 °F 32.0 °F 11% 29.83 in 10.0 mi NW 16.1 mph 24.2 mph N/A   Clear
6:58 PM 94.8 °F 33.1 °F 11% 29.73 in 10.0 mi NW 16.1 mph - N/A   Clear
7:58 PM 93.2 °F 31.8 °F 11% 29.72 in 10.0 mi NNW 13.8 mph - N/A   Clear
8:58 PM 90.5 °F 31.8 °F 12% 29.73 in 10.0 mi NNW 9.2 mph - N/A   Clear
9:58 PM 82.0 °F 33.4 °F 17% 29.74 in 10.0 mi WNW 6.9 mph - N/A   Clear
10:58 PM 78.4 °F 32.0 °F 18% 29.75 in 10.0 mi NW 8.1 mph - N/A   Clear
11:58 PM 77.4 °F 31.1 °F 18% 29.76 in 10.0 mi NNW 6.9 mph - N/A   Clear